Location: Buchloe
(48.0161°N, 10.7316°E)
Time: 16:24:52
(UTC+02:00)

ISS - Pass Details

Date: 24 May 2018
Orbit: 402 x 406 km, 51.6° (Epoch: 19 June)

Event Time Altitude Azimuth Distance (km) Brightness Sun altitude
Rises 02:53:27 0° 292° (WNW) 2,320 0.0 -17.7°
Reaches altitude 10° 02:55:33 10° 287° (WNW) 1,458 -1.1 -17.6°
Enters shadow 02:57:22 29° 273° (W) 777 -2.6 -17.4°
